Location: The Saddle
(36.8333°N, 80.3417°W)
Time: 04:52:45
(UTC-04:00)

Vanguard 3 - Pass Details

Date: 28 February 2024
Orbit: 510 x 3234 km, 33.3° (Epoch: 24 April)

Event Time Altitude Azimuth Distance (km) Brightness Sun altitude
Rises 23:05:14 0° 272° (W) 7,090 12.3 -54.7°
Reaches altitude 10° 23:09:54 10° 271° (W) 6,154 11.8 -55.2°
Enters shadow 23:22:25 48° 263° (W) 3,775 10.3 -56.7°
